[[{"header":{"parameterUnit":"m.s-1","parameterCategory":1,"la1":30.2991,"la2":30.254,"lo1":-89.0895,"lo2":-89.0444,"dy":0.0017,"dx":0.0017,"nx":28,"ny":28,"refTime":"2023-09-01T03:00:00:Z","depth":0,"parameterNumber":2,"parameterNumberName":"U-component_of_WINDS"},"data":[0,0,0,0,0,0,0,0,0,0,0,0,0,0,0,0,0,0,0,0,0,0,0,0,0,0,0,0,0,0,0,0,0,0,0,0,0,0,0,0,0,0,0,0,0,0,0,0,0,0,0,0,0,0,0,0,0,0,-2.9586,-2.9585,0,-2.9536,-2.9535,-2.9534,-2.9486,-2.9485,-2.9485,-2.9484,-2.9433,-2.9432,-2.9432,0,0,0,0,0,0,0,0,0,0,0,0,0,-2.9639,-2.9639,-2.9586,-2.9585,-2.9585,-2.9536,-2.9535,-2.9534,-2.9486,-2.9485,-2.9485,-2.9484,-2.9433,-2.9432,-2.9431,0,0,0,0,0,0,0,0,0,0,0,0,0,-2.9605,-2.9638,-2.9586,-2.9555,-2.9551,-2.9536,-2.9535,-2.9534,-2.9486,-2.9485,-2.9484,-2.9484,-2.9434,-2.9432,-2.9431,-2.9443,0,0,-2.9428,-2.9427,0,0,0,0,0,0,0,0,-2.9607,-2.9604,-2.956,-2.9557,-2.9553,-2.9516,-2.9535,-2.9504,-2.9486,-2.9511,-2.9484,-2.9483,-2.9461,-2.9458,-2.9451,-2.944,-2.9438,-2.9428,-2.9427,-2.9426,-2.9426,0,0,0,0,0,0,0,-2.961,-2.9605,-2.9566,-2.9559,-2.9555,-2.9543,-2.9537,-2.9529,-2.9492,-2.9509,-2.9505,-2.95,-2.9459,-2.9452,-2.9449,-2.9437,-2.9428,-2.9427,-2.9426,-2.9425,-2.9431,-2.9432,0,0,0,0,0,0,-2.9617,-2.9608,-2.9568,-2.9565,-2.9579,-2.9543,-2.9536,-2.9529,-2.9492,-2.9486,-2.9501,-2.9498,-2.9454,-2.945,-2.9447,-2.9456,-2.9426,-2.9425,-2.9425,-2.943,-2.9432,-2.9432,0,0,0,0,0,0,-2.9618,-2.9614,-2.957,-2.9585,-2.9578,-2.9543,-2.9535,-2.9528,-2.9521,-2.9486,-2.9479,-2.95,-2.9453,-2.9449,-2.9444,-2.9453,-2.9425,-2.9424,-2.9429,-2.9431,-2.9432,-2.9475,0,0,0,0,0,0,-2.962,-2.9615,-2.9619,-2.9586,-2.9578,-2.9567,-2.9536,-2.9528,-2.9519,-2.9514,-2.9483,-2.9477,-2.9452,-2.9446,-2.9442,-2.9451,-2.9423,-2.9428,-2.943,-2.9432,-2.9472,-2.9477,-2.9482,0,0,0,0,0,-2.9622,-2.9634,-2.9619,-2.9615,-2.9582,-2.9568,-2.9564,-2.9535,-2.952,-2.9523,-2.9501,-2.9478,-2.9453,-2.9445,-2.9441,-2.945,-2.9428,-2.943,-2.9431,-2.947,-2.9476,-2.9481,0,0,0,0,0,0,-2.9669,-2.9629,-2.9612,-2.9613,-2.9594,-2.956,-2.9563,-2.9543,-2.9528,-2.9524,-2.9489,-2.9483,-2.9481,-2.9465,-2.9457,-2.9458,-2.9437,-2.9438,-2.9468,-2.9473,-2.9478,-2.9481,-2.9422,0,0,0,0,0,-2.968,-2.9672,-2.9637,-2.9641,-2.9632,-2.96,-2.9592,-2.9572,-2.9551,-2.9542,-2.952,-2.95,-2.9487,-2.948,-2.9467,-2.947,-2.9461,-2.9474,-2.9479,-2.9483,-2.9484,-2.9482,-2.9486,-2.9439,-2.9439,-2.9439,0,0,-2.9702,-2.9678,-2.9675,-2.965,-2.9633,-2.9624,-2.9593,-2.9586,-2.9579,-2.9541,-2.9534,-2.9517,-2.9493,-2.9491,-2.949,-2.9478,-2.9495,-2.9485,-2.9489,-2.9487,-2.9484,-2.9489,-2.9493,-2.944,-2.944,-2.944,0,0,-2.9736,-2.9719,-2.9719,-2.9702,-2.9676,-2.9654,-2.9655,-2.9623,-2.961,-2.9602,-2.9573,-2.9564,-2.9544,-2.9527,-2.9516,-2.9543,-2.9521,-2.954,-2.9564,-2.9562,-2.9566,-2.9569,-2.9576,-2.958,-2.9541,-2.9541,-2.9542,0,-2.9766,-2.9752,-2.9722,-2.9716,-2.9704,-2.967,-2.9669,-2.9654,-2.9626,-2.9619,-2.9607,-2.9579,-2.9561,-2.9553,-2.956,-2.9553,-2.9551,-2.9542,-2.9568,-2.9571,-2.9573,-2.958,-2.9583,-2.9544,-2.9543,-2.9543,-2.9543,0,-2.9789,-2.978,-2.9783,-2.9755,-2.9745,-2.9742,-2.971,-2.9703,-2.9684,-2.9663,-2.9655,-2.9631,-2.9611,-2.9609,-2.959,-2.9598,-2.9592,-2.9575,-2.9553,-2.9581,-2.9586,-2.9588,-2.9547,-2.9546,-2.9546,-2.9545,0,0,-2.985,-2.9805,-2.9807,-2.9793,-2.9762,-2.9754,-2.9749,-2.9729,-2.9723,-2.9705,-2.9698,-2.9682,-2.9665,-2.9652,-2.9631,-2.963,-2.965,-2.9613,-2.9611,-2.9618,-2.9655,-2.9667,-2.967,-2.9636,-2.9636,-2.9637,-2.9656,0,-2.9877,-2.9866,-2.9838,-2.9835,-2.9825,-2.9791,-2.9787,-2.9767,-2.9747,-2.9736,-2.9714,-2.9702,-2.9682,-2.9674,-2.9672,-2.9648,-2.9657,-2.9647,-2.9628,-2.9628,-2.9633,-2.9674,-2.9686,-2.9706,-2.9659,-2.9659,-2.9659,0,-2.9907,-2.989,-2.9885,-2.9853,-2.9848,-2.9844,-2.9823,-2.9813,-2.9789,-2.9775,-2.9761,-2.9737,-2.9729,-2.971,-2.9697,-2.9691,-2.9682,-2.9669,-2.9669,-2.9665,-2.9644,-2.9668,-2.9712,-2.9714,-2.9663,-2.9663,-2.9662,0,-2.9949,-2.9925,-2.9919,-2.9908,-2.9871,-2.9869,-2.9854,-2.9829,-2.9819,-2.98,-2.9793,-2.9774,-2.9763,-2.9749,-2.9721,-2.971,-2.971,-2.9689,-2.9696,-2.9697,-2.9696,-2.9696,-2.9737,-2.9695,-2.9695,-2.9694,-2.9694,0,-2.9981,-2.9979,-2.9937,-2.9933,-2.9929,-2.9897,-2.9895,-2.9876,-2.9854,-2.9845,-2.9816,-2.9808,-2.9772,-2.976,-2.9738,-2.9729,-2.9725,-2.9712,-2.9706,-2.9714,-2.9715,-2.9706,-2.9703,-2.9695,-2.9695,-2.9695,-2.9695,0,-3.0026,-2.9998,-2.9989,-2.9955,-2.9946,-2.9945,-2.9915,-2.9909,-2.9888,-2.9877,-2.9872,-2.9839,-2.9823,-2.9793,-2.9769,-2.9754,-2.9749,-2.974,-2.9757,-2.9753,-2.9761,-2.976,-2.9795,-2.9797,-2.9756,-2.9756,-2.9757,0,-3.0047,-3.0045,-3.001,-3.0002,-2.9987,-2.9975,-2.9963,-2.9932,-2.9922,-2.9894,-2.9891,-2.9873,-2.9856,-2.9832,-2.9805,-2.9786,-2.9774,-2.9788,-2.9771,-2.9778,-2.9772,-2.9771,-2.977,-2.9791,-2.9792,-2.9792,-2.9793,0,-3.0086,-3.0072,-3.0057,-3.0037,-3.0025,-3.0008,-2.9989,-2.9984,-2.9948,-2.9938,-2.9921,-2.9908,-2.9883,-2.9864,-2.9841,-2.9824,-2.9802,-2.9799,-2.9799,-2.9805,-2.9814,-2.9807,-2.9765,-2.9797,-2.9797,-2.9797,-2.9796,-2.9796,-3.0118,-3.0114,-3.0088,-3.0072,-3.0055,-3.0038,-3.003,-3.0008,-2.9993,-2.997,-2.9953,-2.9936,-2.9911,-2.9878,-2.9862,-2.9849,-2.9838,-2.9839,-2.9839,-2.9839,-2.9841,-2.9818,-2.9845,-2.9844,-2.9844,-2.9844,-2.9844,0,-3.0153,-3.0135,-3.0121,-3.0096,-3.0083,-3.0064,-3.0042,-3.0032,-3.0018,-2.9997,-2.9981,-2.9961,-2.9942,-2.9914,-2.9893,-2.9887,-2.9877,-2.9883,-2.9882,-2.9878,-2.9853,-2.9854,-2.9892,-2.9892,-2.9892,-2.9892,-2.9892,-2.9892,-3.017,-3.0161,-3.0144,-3.0126,-3.0107,-3.0091,-3.008,-3.0064,-3.0046,-3.0025,-3.001,-2.9991,-2.9967,-2.9944,-2.9925,-2.9917,-2.991,-2.9919,-2.9908,-2.9884,-2.988,-2.9876,-2.9876,-2.9918,-2.9918,-2.9934,-2.9934,-2.9934]},{"header":{"parameterUnit":"m.s-1","parameterCategory":1,"la1":30.2991,"la2":30.254,"lo1":-89.0895,"lo2":-89.0444,"dy":0.0017,"dx":0.0017,"nx":28,"ny":28,"refTime":"2023-09-01T03:00:00:Z","depth":0,"parameterNumber":3,"parameterNumberName":"V-component_of_WINDS"},"data":[0,0,0,0,0,0,0,0,0,0,0,0,0,0,0,0,0,0,0,0,0,0,0,0,0,0,0,0,0,0,0,0,0,0,0,0,0,0,0,0,0,0,0,0,0,0,0,0,0,0,0,0,0,0,0,0,0,0,1.8765,1.8767,0,1.8867,1.8868,1.8869,1.8878,1.8877,1.8876,1.8875,1.8979,1.8982,1.8986,0,0,0,0,0,0,0,0,0,0,0,0,0,1.858,1.8584,1.8765,1.8767,1.8768,1.8867,1.8868,1.887,1.8878,1.8877,1.8876,1.8874,1.8978,1.8982,1.8987,0,0,0,0,0,0,0,0,0,0,0,0,0,1.8669,1.8585,1.8765,1.8784,1.8787,1.8866,1.8868,1.887,1.8879,1.8877,1.8875,1.8874,1.8976,1.8982,1.8987,1.9055,0,0,1.9004,1.9007,0,0,0,0,0,0,0,0,1.8664,1.8676,1.878,1.8783,1.8786,1.8858,1.8841,1.8932,1.8879,1.8844,1.8875,1.8873,1.894,1.8948,1.8971,1.906,1.9064,1.9005,1.9008,1.9011,1.9012,0,0,0,0,0,0,0,1.8658,1.8672,1.8806,1.8782,1.8785,1.8788,1.8799,1.8858,1.89,1.8847,1.8848,1.8859,1.8941,1.8966,1.8974,1.9065,1.9005,1.901,1.9013,1.9016,1.9217,1.9219,0,0,0,0,0,0,1.8648,1.8666,1.8802,1.8809,1.872,1.8793,1.8805,1.8837,1.8899,1.8907,1.8861,1.886,1.8957,1.8967,1.8977,1.9062,1.9011,1.9016,1.9019,1.9215,1.9217,1.922,0,0,0,0,0,0,1.8644,1.866,1.8798,1.8738,1.8756,1.8798,1.8833,1.884,1.8864,1.891,1.8917,1.8878,1.8956,1.8969,1.9036,1.9066,1.9019,1.9024,1.9213,1.9216,1.9218,1.9231,0,0,0,0,0,0,1.8639,1.8659,1.8684,1.8738,1.8759,1.8855,1.8835,1.8843,1.8874,1.8873,1.8928,1.8935,1.8956,1.9027,1.9042,1.9073,1.9028,1.921,1.9214,1.9218,1.9228,1.9234,1.9239,0,0,0,0,0,1.8632,1.8683,1.8685,1.8702,1.8792,1.8856,1.8868,1.889,1.8876,1.8903,1.8932,1.8934,1.906,1.9034,1.905,1.9083,1.9208,1.9213,1.9217,1.9226,1.9233,1.9239,0,0,0,0,0,0,1.8631,1.8691,1.8694,1.8764,1.8805,1.8858,1.8892,1.8897,1.8943,1.894,1.8966,1.8979,1.9045,1.9071,1.9041,1.9153,1.9133,1.9141,1.9134,1.9141,1.9146,1.9139,1.9033,0,0,0,0,0,1.8639,1.8686,1.8736,1.8793,1.8814,1.8849,1.8878,1.8892,1.8936,1.8953,1.8988,1.903,1.908,1.9112,1.916,1.9232,1.9245,1.9263,1.9268,1.9273,1.9279,1.9322,1.9331,1.9234,1.9234,1.9234,0,0,1.8656,1.8694,1.8722,1.8794,1.8827,1.8877,1.8864,1.8916,1.8953,1.8961,1.9026,1.9053,1.9103,1.9173,1.9206,1.9197,1.9309,1.9278,1.9281,1.9286,1.9327,1.9336,1.9344,1.9237,1.9236,1.9236,0,0,1.8712,1.8745,1.8797,1.8831,1.8883,1.8906,1.8919,1.8972,1.899,1.9056,1.9064,1.9109,1.9193,1.9229,1.9257,1.9329,1.9333,1.9344,1.9373,1.9414,1.9421,1.9428,1.9455,1.9465,1.9351,1.9351,1.9351,0,1.8726,1.88,1.8823,1.8876,1.8908,1.8918,1.8972,1.9004,1.9068,1.909,1.9079,1.9187,1.9221,1.9301,1.9318,1.9341,1.9357,1.9338,1.9418,1.9426,1.9432,1.9459,1.9469,1.9352,1.9352,1.9351,1.9351,0,1.8816,1.8867,1.8904,1.8966,1.9002,1.9055,1.9087,1.9121,1.9132,1.9157,1.9225,1.9267,1.9324,1.9344,1.9355,1.9426,1.9419,1.9413,1.9393,1.9442,1.9468,1.9478,1.9353,1.9353,1.9353,1.9352,0,0,1.8873,1.8949,1.8962,1.8992,1.905,1.9091,1.9145,1.9201,1.9231,1.9275,1.9322,1.9394,1.939,1.9423,1.9438,1.9474,1.953,1.9463,1.9465,1.9476,1.9613,1.9618,1.9629,1.9533,1.9535,1.9536,1.9609,0,1.8937,1.9033,1.9056,1.9139,1.9188,1.92,1.9247,1.9289,1.9314,1.936,1.9387,1.9439,1.9428,1.9448,1.9484,1.9515,1.9558,1.951,1.9577,1.958,1.9566,1.9642,1.9647,1.9714,1.9619,1.9621,1.9622,0,1.9023,1.9071,1.9159,1.9213,1.9234,1.9276,1.9331,1.9374,1.9422,1.9438,1.9476,1.9488,1.9546,1.9523,1.9604,1.9571,1.96,1.962,1.9623,1.9631,1.9604,1.9653,1.9736,1.9746,1.9637,1.9636,1.9635,0,1.9058,1.9144,1.9208,1.9233,1.9297,1.9327,1.9355,1.9401,1.9434,1.9482,1.9505,1.9559,1.9588,1.963,1.9657,1.9638,1.9737,1.9715,1.9753,1.9752,1.9773,1.9772,1.9863,1.979,1.979,1.979,1.979,0,1.9127,1.9181,1.9225,1.9265,1.9326,1.9352,1.9412,1.9441,1.9482,1.9528,1.9541,1.9584,1.9617,1.9665,1.9686,1.9751,1.9764,1.9779,1.9784,1.9779,1.9777,1.9798,1.9795,1.9793,1.9792,1.9791,1.9791,0,1.9176,1.9208,1.9279,1.9335,1.935,1.9393,1.944,1.948,1.9506,1.9564,1.958,1.9621,1.9678,1.9709,1.978,1.9795,1.9868,1.987,1.9852,1.9854,1.989,1.9887,2.0,2.0017,1.9931,1.9932,1.9932,0,1.9219,1.9261,1.9321,1.9353,1.9382,1.9433,1.9468,1.9496,1.9532,1.959,1.9623,1.9681,1.9729,1.982,1.9857,1.9912,1.9916,1.9952,1.9925,1.9918,1.9919,1.9916,1.9922,1.9957,1.9958,1.9958,1.9959,0,1.9292,1.9306,1.9355,1.941,1.9451,1.9496,1.954,1.9566,1.9602,1.9641,1.97,1.9738,1.9811,1.9869,1.9928,1.9957,1.9965,1.9967,1.9979,1.9974,1.9963,1.9971,1.9866,1.9965,1.9964,1.9964,1.9963,1.9963,1.934,1.9379,1.9428,1.9483,1.9519,1.9561,1.9601,1.9633,1.9683,1.9745,1.9759,1.9822,1.9871,1.995,1.9981,2.0031,2.0024,2.0041,2.0046,2.005,2.0052,1.9954,2.0042,2.0042,2.0042,2.0041,2.0041,0,1.9415,1.9447,1.9498,1.956,1.9604,1.9607,1.9657,1.9693,1.9748,1.9793,1.9841,1.9909,1.9966,2.0008,2.0066,2.0098,2.0103,2.0113,2.0111,2.0118,2.0054,2.0038,2.0108,2.0108,2.0108,2.0108,2.0108,2.0108,1.9459,1.9525,1.9545,1.963,1.9662,1.9724,1.9753,1.9792,1.9828,1.9904,1.9952,1.9978,2.0023,2.0084,2.0137,2.0148,2.017,2.0179,2.019,2.013,2.0122,2.0116,2.0102,2.0183,2.0183,2.0251,2.0252,2.0252]}]]